GW6983 Weather Reports


Display with metric or nautical units.
time (UTC)temp
F
wind
direction
speed
MPH
gust
MPH
rain 1hr
in
rain 24hr
in
rain mn
in
humidity
%
barometer
mb
20260503184011 58 10 1.0 5.0 0.00 0.00 0.00 73 1013.8
20260503183512 58 11 1.0 5.0 0.00 0.00 0.00 73 1013.8
20260503183029 58 9 0.0 2.0 0.00 0.00 0.00 75 1013.9
20260503182509 58 336 0.0 4.0 0.00 0.00 0.00 75 1013.8
20260503182012 58 59 1.0 4.0 0.00 0.00 0.00 74 1013.9
20260503181515 58 344 1.0 3.0 0.00 0.00 0.00 75 1013.8
20260503181008 58 34 1.0 3.0 0.00 0.00 0.00 73 1013.8
20260503180507 59 14 1.0 3.0 0.00 0.00 0.00 72 1013.7
20260503180027 59 360 1.0 7.0 0.00 0.00 0.00 73 1013.7
20260503175511 60 61 1.0 7.0 0.00 0.00 0.00 73 1013.6
20260503175006 60 117 0.0 4.0 0.00 0.00 0.00 71 1013.6
20260503174526 60 198 1.0 4.0 0.00 0.00 0.00 72 1013.5
20260503174012 59 173 0.0 4.0 0.00 0.00 0.00 76 1013.5
20260503173509 58 157 1.0 4.0 0.00 0.00 0.00 76 1013.5
20260503173027 58 136 1.0 4.0 0.00 0.00 0.00 77 1013.6
20260503172508 58 155 1.0 4.0 0.00 0.00 0.00 76 1013.5
20260503172015 58 140 1.0 3.0 0.00 0.00 0.00 76 1013.6
20260503171528 58 192 0.0 5.0 0.00 0.00 0.00 75 1013.7
20260503171008 58 208 2.0 5.0 0.00 0.00 0.00 75 1013.5
20260503170507 58 130 1.0 4.0 0.00 0.00 0.00 75 1013.6
20260503151012 55 156 0.0 2.0 0.00 0.00 0.00 79 1012.9
20260503150504 55 176 0.0 2.0 0.00 0.00 0.00 79 1012.8
20260503131006 54 316 0.0 3.0 0.00 0.00 0.00 80 1011.6
20260503130503 54 255 0.0 3.0 0.00 0.00 0.00 80 1011.5
20260503110510 54 103 0.0 2.0 0.00 0.00 0.00 81 1011.6
20260503043036 55 139 1.0 5.0 0.00 0.00 0.00 80 1012.8
20260503042507 55 178 1.0 5.0 0.00 0.00 0.00 80 1012.7
20260503042012 55 180 0.0 2.0 0.00 0.00 0.00 80 1012.6
20260503041525 55 171 0.0 2.0 0.00 0.00 0.00 80 1012.6
20260503041008 55 144 0.0 2.0 0.00 0.00 0.00 80 1012.6
20260503040514 55 113 0.0 3.0 0.00 0.00 0.00 80 1012.6
20260503040029 55 186 0.0 3.0 0.00 0.00 0.00 80 1012.6
20260503035508 55 161 0.0 3.0 0.00 0.00 0.00 80 1012.7
20260503035009 55 157 1.0 3.0 0.00 0.00 0.00 80 1012.6
20260503034526 55 126 1.0 2.0 0.00 0.00 0.00 80 1012.5
20260503034008 55 62 1.0 3.0 0.00 0.00 0.00 80 1012.5
20260503033509 55 177 0.0 3.0 0.00 0.00 0.00 80 1012.4
20260503033030 55 146 0.0 2.0 0.00 0.00 0.00 80 1012.4
20260503032508 55 119 0.0 2.0 0.00 0.00 0.00 80 1012.4
20260503032012 55 360 0.0 2.0 0.00 0.00 0.00 80 1012.2
20260503031513 55 117 1.0 3.0 0.00 0.00 0.00 80 1012.1
20260503031010 55 320 1.0 3.0 0.00 0.00 0.00 80 1012.0
20260503030507 55 160 1.0 4.0 0.00 0.00 0.00 80 1011.9
20260503030013 55 161 1.0 4.0 0.00 0.00 0.00 80 1011.8
20260503025504 55 338 1.0 3.0 0.00 0.00 0.00 80 1011.9
20260503025008 55 37 1.0 4.0 0.00 0.00 0.00 80 1011.9
20260503024514 55 144 1.0 4.0 0.00 0.00 0.00 80 1011.9
20260503024007 55 22 1.0 5.0 0.00 0.00 0.00 79 1011.9
20260503023510 56 147 2.0 5.0 0.00 0.00 0.00 78 1011.9
20260503023028 56 36 1.0 4.0 0.00 0.00 0.00 78 1011.9
20260503022506 56 149 0.0 4.0 0.00 0.00 0.00 78 1011.9
20260503022008 56 150 0.0 3.0 0.00 0.00 0.00 78 1012.0
20260503021512 56 80 1.0 4.0 0.00 0.00 0.00 78 1012.0
20260503021008 56 43 1.0 4.0 0.00 0.00 0.00 78 1011.9
20260503020505 56 325 1.0 3.0 0.00 0.00 0.00 77 1012.0
20260503020010 56 99 1.0 3.0 0.00 0.00 0.00 77 1011.9
20260503015512 56 142 0.0 3.0 0.00 0.00 0.00 77 1012.0
20260503015010 57 123 1.0 3.0 0.00 0.00 0.00 77 1012.0
20260503014510 57 129 0.0 5.0 0.00 0.00 0.00 76 1012.1
20260503014011 57 160 1.0 7.0 0.00 0.00 0.00 75 1012.1
20260503013510 57 108 0.0 7.0 0.00 0.00 0.00 75 1012.1
20260503013036 57 45 0.0 3.0 0.00 0.00 0.00 76 1012.2
20260503012511 57 349 1.0 4.0 0.00 0.00 0.00 75 1012.2
20260503012010 57 139 0.0 4.0 0.00 0.00 0.00 74 1012.3
20260503011520 58 325 1.0 4.0 0.00 0.00 0.00 73 1012.3
20260503011009 58 105 1.0 4.0 0.00 0.00 0.00 72 1012.3
20260503010506 58 194 1.0 4.0 0.00 0.00 0.00 72 1012.3
20260503010029 58 123 1.0 4.0 0.00 0.00 0.00 71 1012.5
20260503005507 58 148 1.0 7.0 0.00 0.00 0.00 70 1012.4
20260503005007 58 46 2.0 7.0 0.00 0.00 0.00 69 1012.4
20260503004516 59 352 1.0 5.0 0.00 0.00 0.00 70 1012.4
20260503004012 59 296 1.0 5.0 0.00 0.00 0.00 70 1012.4
20260503003503 59 47 1.0 6.0 0.00 0.00 0.00 70 1012.5
20260503003042 59 153 1.0 6.0 0.00 0.00 0.00 70 1012.5
20260503002507 59 162 1.0 5.0 0.00 0.00 0.00 70 1012.5
20260503002010 60 24 2.0 5.0 0.00 0.00 0.00 69 1012.6
20260503001533 60 150 2.0 4.0 0.00 0.00 0.00 68 1012.6
20260503001011 60 121 1.0 3.0 0.00 0.00 0.00 68 1012.5
20260503000507 60 339 1.0 4.0 0.00 0.00 0.00 68 1012.5
20260503000026 60 17 1.0 5.0 0.00 0.00 0.00 67 1012.5
20260502235509 61 29 1.0 5.0 0.00 0.00 0.00 67 1012.6
20260502235007 61 360 1.0 5.0 0.00 0.00 0.00 68 1012.7
20260502234537 60 44 1.0 6.0 0.00 0.00 0.00 68 1012.7
20260502234010 61 84 2.0 6.0 0.00 0.00 0.00 67 1012.8
20260502233512 61 159 1.0 7.0 0.00 0.00 0.00 68 1012.7
20260502233037 61 9 1.0 8.0 0.00 0.00 0.00 67 1012.7
20260502232511 61 17 2.0 8.0 0.00 0.00 0.00 66 1012.8
20260502232007 61 142 2.0 8.0 0.00 0.00 0.00 67 1012.8
20260502231529 61 46 1.0 4.0 0.00 0.00 0.00 67 1012.9
20260502231012 61 352 1.0 4.0 0.00 0.00 0.00 66 1013.0
20260502230509 61 13 2.0 4.0 0.00 0.00 0.00 66 1013.0
20260502230033 61 9 1.0 3.0 0.00 0.00 0.00 67 1013.2
20260502225506 61 97 1.0 3.0 0.00 0.00 0.00 67 1013.2
20260502225010 61 319 1.0 3.0 0.00 0.00 0.00 66 1013.3
20260502224526 62 349 1.0 4.0 0.00 0.00 0.00 65 1013.3
20260502224013 62 130 0.0 4.0 0.00 0.00 0.00 66 1013.4
20260502223509 61 142 1.0 5.0 0.00 0.00 0.00 67 1013.5
20260502223036 61 146 2.0 5.0 0.00 0.00 0.00 67 1013.6
20260502222509 61 350 1.0 5.0 0.00 0.00 0.00 66 1013.6
20260502222011 61 163 1.0 4.0 0.00 0.00 0.00 68 1013.7
20260502221528 61 19 1.0 3.0 0.00 0.00 0.00 65 1013.7
20260502221011 62 90 1.0 5.0 0.00 0.00 0.00 66 1013.8
20260502220512 62 38 1.0 5.0 0.00 0.00 0.00 67 1013.8
20260502220026 61 99 1.0 5.0 0.00 0.00 0.00 67 1013.8
20260502215513 60 17 2.0 4.0 0.00 0.00 0.00 68 1013.8
20260502215010 61 34 1.0 4.0 0.00 0.00 0.00 69 1013.9
20260502214523 61 310 2.0 3.0 0.00 0.00 0.00 68 1013.9
20260502214007 60 352 0.0 3.0 0.00 0.00 0.00 70 1014.0
20260502213511 60 31 1.0 3.0 0.00 0.00 0.00 69 1014.0
20260502213028 60 352 1.0 4.0 0.00 0.00 0.00 69 1014.0
20260502212509 60 151 1.0 4.0 0.00 0.00 0.00 69 1014.0
20260502212009 60 22 1.0 6.0 0.00 0.00 0.00 69 1013.9
20260502211512 60 64 1.0 6.0 0.00 0.00 0.00 70 1014.0
20260502211007 60 351 1.0 5.0 0.00 0.00 0.00 69 1014.1
20260502210505 60 165 1.0 5.0 0.00 0.00 0.00 70 1014.1
20260502210011 60 161 1.0 6.0 0.00 0.00 0.00 69 1014.2
20260502205506 60 171 1.0 6.0 0.00 0.00 0.00 69 1014.2
20260502205007 59 148 1.0 7.0 0.00 0.00 0.00 70 1014.2
20260502204514 59 141 1.0 7.0 0.00 0.00 0.00 70 1014.4
20260502204007 59 175 2.0 4.0 0.00 0.00 0.00 70 1014.3
20260502203511 59 178 1.0 6.0 0.00 0.00 0.00 71 1014.4
20260502203014 59 190 2.0 6.0 0.00 0.00 0.00 71 1014.6
20260502202510 59 141 2.0 7.0 0.00 0.00 0.00 71 1014.5
20260502202007 59 151 2.0 7.0 0.00 0.00 0.00 71 1014.5
20260502201515 59 92 2.0 5.0 0.00 0.00 0.00 72 1014.6
20260502201008 59 193 2.0 7.0 0.00 0.00 0.00 72 1014.8
20260502200509 59 138 2.0 7.0 0.00 0.00 0.00 72 1014.7
20260502200013 58 178 1.0 4.0 0.00 0.00 0.00 73 1014.7
20260502195508 58 105 1.0 4.0 0.00 0.00 0.00 74 1014.7
20260502195006 58 237 1.0 4.0 0.00 0.00 0.00 76 1014.7
20260502194532 58 190 1.0 6.0 0.00 0.00 0.00 76 1014.7
20260502194007 58 152 1.0 4.0 0.00 0.00 0.00 76 1014.7
20260502193507 58 202 0.0 4.0 0.00 0.00 0.00 76 1014.8
20260502193015 58 47 1.0 4.0 0.00 0.00 0.00 76 1014.7
20260502192508 58 148 1.0 4.0 0.00 0.00 0.00 76 1014.8
20260502192011 58 163 1.0 4.0 0.00 0.00 0.00 76 1014.7
20260502191516 58 109 1.0 3.0 0.00 0.00 0.00 76 1014.7
20260502191007 57 161 1.0 5.0 0.00 0.00 0.00 77 1014.7
20260502190506 57 159 1.0 5.0 0.00 0.00 0.00 77 1014.7
20260502190030 57 175 1.0 4.0 0.00 0.00 0.00 78 1014.8
20260502185507 57 163 0.0 4.0 0.00 0.00 0.00 78 1014.8
20260502185008 56 154 0.0 4.0 0.00 0.00 0.00 78 1014.7
20260502184519 56 184 2.0 6.0 0.00 0.00 0.00 79 1014.8